Time,TemperatureF,DewpointF,PressureIn,WindDirection,WindDirectionDegrees,WindSpeedMPH,WindSpeedGustMPH,Humidity,HourlyPrecipIn,Conditions,Clouds,dailyrainin,SoftwareType,DateUTC
2013-02-19 01:02:00,-2.0,-99.9,-100.00,North,8,1.0,3.0,-999,-99.99,,,-99.99,,2013-02-19 08:02:00,
2013-02-19 03:02:00,-4.0,-99.9,-100.00,NNE,13,2.0,2.0,-999,-99.99,,,-99.99,,2013-02-19 10:02:00,
2013-02-19 04:02:00,-4.0,-99.9,-100.00,NNE,20,2.0,2.0,-999,-99.99,,,-99.99,,2013-02-19 11:02:00,
2013-02-19 05:02:00,-6.0,-99.9,-100.00,NE,37,3.0,4.0,-999,-99.99,,,-99.99,,2013-02-19 12:02:00,
2013-02-19 06:02:00,-4.0,-99.9,-100.00,North,11,3.0,4.0,-999,-99.99,,,-99.99,,2013-02-19 13:02:00,
2013-02-19 06:52:00,-2.0,-99.9,-100.00,NNE,14,3.0,4.0,-999,-99.99,,,-99.99,,2013-02-19 13:52:00,
2013-02-19 07:52:00,3.0,-99.9,-100.00,North,3,1.0,2.0,-999,-99.99,,,-99.99,,2013-02-19 14:52:00,
2013-02-19 08:52:00,7.0,-99.9,-100.00,ENE,71,4.0,5.0,-999,-99.99,,,-99.99,,2013-02-19 15:52:00,
2013-02-19 09:02:00,7.0,-99.9,-100.00,ENE,71,4.0,5.0,-999,-99.99,,,-99.99,,2013-02-19 16:02:00,
2013-02-19 09:12:00,7.0,-99.9,-100.00,ENE,71,4.0,5.0,-999,-99.99,,,-99.99,,2013-02-19 16:12:00,
2013-02-19 09:52:00,18.0,-99.9,-100.00,NE,44,6.0,9.0,-999,-99.99,,,-99.99,,2013-02-19 16:52:00,
2013-02-19 10:01:00,18.0,-99.9,-100.00,NE,44,6.0,9.0,-999,-99.99,,,-99.99,,2013-02-19 17:01:00,
2013-02-19 10:10:00,21.0,-99.9,-100.00,North,9,2.0,5.0,-999,-99.99,,,-99.99,,2013-02-19 17:10:00,
2013-02-19 10:11:00,18.0,-99.9,-100.00,NE,44,6.0,9.0,-999,-99.99,,,-99.99,,2013-02-19 17:11:00,
2013-02-19 10:52:00,21.0,-99.9,-100.00,North,9,2.0,5.0,-999,-99.99,,,-99.99,,2013-02-19 17:52:00,
2013-02-19 11:02:00,21.0,-99.9,-100.00,North,9,2.0,5.0,-999,-99.99,,,-99.99,,2013-02-19 18:02:00,
2013-02-19 11:10:00,23.0,-99.9,-100.00,ENE,60,12.0,12.0,-999,-99.99,,,-99.99,,2013-02-19 18:10:00,
2013-02-19 11:52:00,23.0,-99.9,-100.00,ENE,60,12.0,12.0,-999,-99.99,,,-99.99,,2013-02-19 18:52:00,
2013-02-19 12:01:00,23.0,-99.9,-100.00,ENE,60,12.0,12.0,-999,-99.99,,,-99.99,,2013-02-19 19:01:00,
2013-02-19 12:10:00,23.0,-99.9,-100.00,ENE,65,10.0,12.0,-999,-99.99,,,-99.99,,2013-02-19 19:10:00,
2013-02-19 12:52:00,23.0,-99.9,-100.00,ENE,65,10.0,12.0,-999,-99.99,,,-99.99,,2013-02-19 19:52:00,
2013-02-19 13:02:00,23.0,-99.9,-100.00,ENE,65,10.0,12.0,-999,-99.99,,,-99.99,,2013-02-19 20:02:00,
2013-02-19 13:10:00,25.0,-99.9,-100.00,NE,40,8.0,12.0,-999,-99.99,,,-99.99,,2013-02-19 20:10:00,
2013-02-19 13:52:00,25.0,-99.9,-100.00,NE,40,8.0,12.0,-999,-99.99,,,-99.99,,2013-02-19 20:52:00,
2013-02-19 14:02:00,25.0,-99.9,-100.00,NE,40,8.0,12.0,-999,-99.99,,,-99.99,,2013-02-19 21:02:00,
2013-02-19 14:10:00,25.0,-99.9,-100.00,NE,52,12.0,13.0,-999,-99.99,,,-99.99,,2013-02-19 21:10:00,
2013-02-19 14:52:00,25.0,-99.9,-100.00,NE,52,12.0,13.0,-999,-99.99,,,-99.99,,2013-02-19 21:52:00,
2013-02-19 15:02:00,25.0,-99.9,-100.00,NE,52,12.0,13.0,-999,-99.99,,,-99.99,,2013-02-19 22:02:00,
2013-02-19 15:10:00,25.0,-99.9,-100.00,NNE,26,10.0,19.0,-999,-99.99,,,-99.99,,2013-02-19 22:10:00,
2013-02-19 15:52:00,25.0,-99.9,-100.00,NNE,26,10.0,19.0,-999,-99.99,,,-99.99,,2013-02-19 22:52:00,
2013-02-19 16:01:00,25.0,-99.9,-100.00,NNE,26,10.0,19.0,-999,-99.99,,,-99.99,,2013-02-19 23:01:00,
2013-02-19 16:52:00,23.0,-99.9,-100.00,NE,39,12.0,21.0,-999,-99.99,,,-99.99,,2013-02-19 23:52:00,
2013-02-19 17:10:00,23.0,-99.9,-100.00,NE,47,17.0,19.0,-999,-99.99,,,-99.99,,2013-02-20 00:10:00,
2013-02-19 17:52:00,23.0,-99.9,-100.00,NE,47,17.0,19.0,-999,-99.99,,,-99.99,,2013-02-20 00:52:00,
2013-02-19 18:02:00,23.0,-99.9,-100.00,NE,47,17.0,19.0,-999,-99.99,,,-99.99,,2013-02-20 01:02:00,
2013-02-19 18:10:00,21.0,-99.9,-100.00,NE,53,13.0,19.0,-999,-99.99,,,-99.99,,2013-02-20 01:10:00,
2013-02-19 18:52:00,21.0,-99.9,-100.00,NE,53,13.0,19.0,-999,-99.99,,,-99.99,,2013-02-20 01:52:00,
2013-02-19 19:02:00,21.0,-99.9,-100.00,NE,53,13.0,19.0,-999,-99.99,,,-99.99,,2013-02-20 02:02:00,
2013-02-19 19:10:00,19.0,-99.9,-100.00,NE,42,18.0,20.0,-999,-99.99,,,-99.99,,2013-02-20 02:10:00,
2013-02-19 19:52:00,19.0,-99.9,-100.00,NE,42,18.0,20.0,-999,-99.99,,,-99.99,,2013-02-20 02:52:00,
2013-02-19 20:02:00,19.0,-99.9,-100.00,NE,42,18.0,20.0,-999,-99.99,,,-99.99,,2013-02-20 03:02:00,
2013-02-19 20:10:00,19.0,-99.9,-100.00,NE,41,11.0,19.0,-999,-99.99,,,-99.99,,2013-02-20 03:10:00,
2013-02-19 20:52:00,19.0,-99.9,-100.00,NE,41,11.0,19.0,-999,-99.99,,,-99.99,,2013-02-20 03:52:00,
2013-02-19 21:02:00,19.0,-99.9,-100.00,NE,41,11.0,19.0,-999,-99.99,,,-99.99,,2013-02-20 04:02:00,
2013-02-19 21:10:00,19.0,-99.9,-100.00,NE,45,12.0,18.0,-999,-99.99,,,-99.99,,2013-02-20 04:10:00,
2013-02-19 21:52:00,19.0,-99.9,-100.00,NE,45,12.0,18.0,-999,-99.99,,,-99.99,,2013-02-20 04:52:00,
2013-02-19 22:02:00,19.0,-99.9,-100.00,NE,45,12.0,18.0,-999,-99.99,,,-99.99,,2013-02-20 05:02:00,
2013-02-19 22:10:00,16.0,-99.9,-100.00,NNE,33,14.0,23.0,-999,-99.99,,,-99.99,,2013-02-20 05:10:00,
2013-02-19 22:52:00,16.0,-99.9,-100.00,NNE,33,14.0,23.0,-999,-99.99,,,-99.99,,2013-02-20 05:52:00,
2013-02-19 23:02:00,16.0,-99.9,-100.00,NNE,33,14.0,23.0,-999,-99.99,,,-99.99,,2013-02-20 06:02:00,
2013-02-19 23:10:00,12.0,-99.9,-100.00,North,11,8.0,12.0,-999,-99.99,,,-99.99,,2013-02-20 06:10:00,
2013-02-19 23:52:00,12.0,-99.9,-100.00,North,11,8.0,12.0,-999,-99.99,,,-99.99,,2013-02-20 06:52:00,